This is the latest recevied weather packets stored in our database for station/object KI4HRG. If no packets are shown the sender has not sent any weather packets the latest 10 day(s).
| Time | Temp. | Humidity | Pressure | Rain* | Wind** | Luminosity | Snow |
|---|---|---|---|---|---|---|---|
| 1787437392 | 33.89° C | 47% | 1014 hPa | 0 mm | - | 72 W/m² | - |
| 1787437088 | 33.89° C | 47% | 1013.8 hPa | 0 mm | - | 72 W/m² | - |
| 1787436784 | 33.89° C | 47% | 1013.9 hPa | 0 mm | - | 75 W/m² | - |
| 1787436481 | 33.89° C | 46% | 1013.7 hPa | 0 mm | - | 81 W/m² | - |
| 1787436179 | 34.44° C | 48% | 1013.8 hPa | 0 mm | - | 79 W/m² | - |
| 1787435873 | 34.44° C | 47% | 1013.7 hPa | 0 mm | - | 96 W/m² | - |
| 1787435570 | 35° C | 47% | 1013.6 hPa | 0 mm | - | 87 W/m² | - |
| 1787435266 | 35° C | 46% | 1013.7 hPa | 0 mm | - | 263 W/m² | - |
| 1787434962 | 35° C | 46% | 1013.9 hPa | 0 mm | - | 297 W/m² | - |
| 1787434658 | 35° C | 46% | 1013.9 hPa | 0 mm | - | 305 W/m² | - |
| 1787434354 | 35° C | 46% | 1013.9 hPa | 0 mm | - | 323 W/m² | - |
| 1787434049 | 35° C | 47% | 1014.1 hPa | 0 mm | - | 346 W/m² | - |
| 1787433744 | 35° C | 47% | 1014.2 hPa | 0 mm | - | 344 W/m² | - |
| 1787433440 | 35° C | 46% | 1014.1 hPa | 0 mm | - | 378 W/m² | - |
| 1787433135 | 35° C | 46% | 1014.1 hPa | 0 mm | - | 374 W/m² | - |
| 1787432832 | 35° C | 45% | 1014.3 hPa | 0 mm | - | 346 W/m² | - |
| 1787432527 | 35° C | 46% | 1014.2 hPa | 0 mm | - | 354 W/m² | - |
| 1787432220 | 35° C | 45% | 1014.3 hPa | 0 mm | - | 421 W/m² | - |
| 1787431915 | 35° C | 45% | 1014.4 hPa | 0 mm | - | 418 W/m² | - |
| 1787431615 | 34.44° C | 45% | 1014.4 hPa | 0 mm | - | 458 W/m² | - |
| 1787431311 | 35° C | 45% | 1014.4 hPa | 0 mm | - | 465 W/m² | - |
| 1787431008 | 35.56° C | 43% | 1014.6 hPa | 0 mm | - | 497 W/m² | - |
| 1787430703 | 35° C | 44% | 1014.6 hPa | 0 mm | - | 503 W/m² | - |
| 1787430399 | 34.44° C | 45% | 1014.9 hPa | 0 mm | - | 549 W/m² | - |
| 1787430096 | 34.44° C | 45% | 1015 hPa | 0 mm | - | 574 W/m² | - |
* Rain latest hour (hover to see other rain measurements)
** Current wind speed in m/s (hover to see current wind gust speed)